User: anonymous   Login
Location: Newark
(27.5900°N, 83.4900°E)
Time: 01:29:12
(UTC+00:00)
Language:

Hubble Space Telescope - Orbit

View from above orbital plane
View from above orbital plane
View from above satellite
View from above satellite

Ground track
Ground track

The orbit data is extracted from the following two-line orbital elements,

1 20580U 90037B   20018.08114304 +.00000344 +00000-0 +99618-5 0  9995
2 20580 028.4684 240.8112 0002557 261.3751 232.6106 15.09326833433078
Epoch (UTC): 18 January 2020 01:56:50
Eccentricity: 0.0002557
inclination: 28.4684°
perigee height: 536 km
apogee height: 540 km
right ascension of ascending node: 240.8112°
argument of perigee: 261.3751°
revolutions per day: 15.09326833
mean anomaly at epoch: 232.6106°
orbit number at epoch: 43307

The dashed part of the orbit path shows where the satellite is in the earth's shadow,  

DLR